Tracking 19709 objects as of 20-Jun-2019
HD Live streaming from Space Station
objects crossing your sky now

FENGYUN 1C DEB

Track FENGYUN 1C DEB now!
10-day predictions


NORAD ID: 31729
Int'l Code: 1999-025CEC
Perigee: 824.3 km
Apogee: 947.0 km
Inclination: 99.2 °
Period: 102.5 minutes
Semi major axis: 7256 km
RCS: 0.0123 m2 (small)
Launch date: May 10, 1999
Source: People's Republic of China (PRC)
Launch site: Taiyaun Space Center, China (TSC)

Note: This is SATELLITE DEBRIS
aabbcc
Your satellite tracking list
Your tracking list is empty




NASA's NSSDC Master Catalog

Two Line Element Set (TLE):
1 31729U 99025CEC 19169.51772592  .00000368  00000-0  25160-3 0  9995
2 31729  99.2464 269.3579 0084543  33.2884 327.3560 14.04437176614229
Source of the keplerian elements: AFSPC